Year,Month,Day,Hour,Minute,Value (Times are PST for windgust in km/hr)
2022,09,07,00,32,3.20
2022,09,07,00,33,1.60
2022,09,07,00,46,1.60
2022,09,07,00,47,1.60
2022,09,07,00,48,3.20
2022,09,07,00,49,3.20
2022,09,07,00,56,3.20
2022,09,07,00,57,3.20
2022,09,07,00,58,3.20
2022,09,07,00,59,3.20
2022,09,07,01,00,3.20
2022,09,07,01,01,1.60
2022,09,07,01,02,1.60
2022,09,07,05,40,3.20
2022,09,07,05,41,4.80
2022,09,07,05,42,3.20
2022,09,07,05,43,4.80
2022,09,07,05,45,4.80
2022,09,07,05,46,3.20
2022,09,07,05,47,1.60
2022,09,07,05,48,3.20
2022,09,07,05,49,1.60
2022,09,07,05,50,3.20
2022,09,07,05,51,3.20
2022,09,07,05,52,1.60
2022,09,07,05,53,3.20
2022,09,07,05,54,6.40
2022,09,07,05,55,3.20
2022,09,07,05,56,1.60
2022,09,07,05,58,1.60
2022,09,07,06,13,1.60
2022,09,07,06,59,6.40
2022,09,07,07,00,3.20
2022,09,07,07,01,1.60
2022,09,07,07,02,3.20
2022,09,07,07,03,1.60
2022,09,07,07,04,3.20
2022,09,07,07,05,3.20
2022,09,07,07,06,3.20
2022,09,07,07,07,3.20
2022,09,07,07,08,4.80
2022,09,07,07,09,3.20
2022,09,07,07,10,1.60
2022,09,07,07,11,1.60
2022,09,07,07,12,1.60
2022,09,07,07,19,3.20
2022,09,07,07,20,3.20
2022,09,07,07,21,4.80
2022,09,07,07,22,3.20
2022,09,07,07,23,3.20
2022,09,07,07,24,3.20
2022,09,07,07,25,3.20
2022,09,07,07,26,4.80
2022,09,07,07,27,4.80
2022,09,07,07,28,3.20
2022,09,07,07,29,3.20
2022,09,07,07,30,1.60
2022,09,07,07,31,3.20
2022,09,07,07,35,3.20
2022,09,07,07,36,3.20
2022,09,07,07,39,1.60
2022,09,07,07,40,1.60
2022,09,07,07,42,1.60
2022,09,07,07,43,3.20
2022,09,07,07,44,3.20
2022,09,07,07,45,1.60
2022,09,07,07,46,3.20
2022,09,07,07,47,3.20
2022,09,07,07,49,1.60
2022,09,07,07,54,3.20
2022,09,07,07,55,3.20
2022,09,07,07,56,3.20
2022,09,07,07,57,1.60
2022,09,07,07,58,1.60
2022,09,07,07,59,3.20
2022,09,07,08,00,3.20
2022,09,07,08,02,4.80
2022,09,07,08,03,6.40
2022,09,07,08,04,1.60
2022,09,07,08,05,3.20
2022,09,07,08,06,6.40
2022,09,07,08,07,3.20
2022,09,07,08,08,3.20
2022,09,07,08,09,3.20
2022,09,07,08,10,6.40
2022,09,07,08,11,4.80
2022,09,07,08,12,3.20
2022,09,07,08,13,3.20
2022,09,07,08,14,4.80
2022,09,07,08,15,4.80
2022,09,07,08,16,6.40
2022,09,07,08,17,11.30
2022,09,07,08,18,8.10
2022,09,07,08,19,4.80
2022,09,07,08,20,4.80
2022,09,07,08,21,14.50
2022,09,07,08,22,9.60
2022,09,07,08,23,11.30
2022,09,07,08,24,16.10
2022,09,07,08,25,8.10
2022,09,07,08,26,8.10
2022,09,07,08,27,14.50
2022,09,07,08,28,17.70
2022,09,07,08,29,12.90
2022,09,07,08,30,16.10
2022,09,07,08,31,16.10
2022,09,07,08,32,9.60
2022,09,07,08,33,16.10
2022,09,07,08,34,11.30
2022,09,07,08,35,14.50
2022,09,07,08,36,16.10
2022,09,07,08,37,17.70
2022,09,07,08,38,22.50
2022,09,07,08,39,12.90
2022,09,07,08,40,9.60
2022,09,07,08,41,9.60
2022,09,07,08,42,6.40
2022,09,07,08,43,25.70
2022,09,07,08,44,20.90
2022,09,07,08,45,14.50
2022,09,07,08,46,12.90
2022,09,07,08,47,11.30
2022,09,07,08,48,17.70
2022,09,07,08,49,4.80
2022,09,07,08,50,12.90
2022,09,07,08,51,16.10
2022,09,07,08,52,11.30
2022,09,07,08,53,20.90
2022,09,07,08,54,17.70
2022,09,07,08,55,12.90
2022,09,07,08,56,11.30
2022,09,07,08,57,12.90
2022,09,07,08,58,11.30
2022,09,07,08,59,16.10
2022,09,07,09,00,6.40
2022,09,07,09,01,12.90
2022,09,07,09,02,12.90
2022,09,07,09,03,12.90
2022,09,07,09,04,14.50
2022,09,07,09,05,14.50
2022,09,07,09,06,12.90
2022,09,07,09,07,9.60
2022,09,07,09,08,17.70
2022,09,07,09,09,11.30
2022,09,07,09,10,12.90
2022,09,07,09,11,9.60
2022,09,07,09,12,12.90
2022,09,07,09,13,14.50
2022,09,07,09,14,6.40
2022,09,07,09,15,9.60
2022,09,07,09,16,16.10
2022,09,07,09,17,14.50
2022,09,07,09,18,6.40
2022,09,07,09,19,4.80
2022,09,07,09,20,12.90
2022,09,07,09,21,11.30
2022,09,07,09,22,11.30
2022,09,07,09,23,14.50
2022,09,07,09,24,14.50
2022,09,07,09,25,14.50
2022,09,07,09,26,12.90
2022,09,07,09,27,11.30
2022,09,07,09,28,9.60
2022,09,07,09,29,9.60
2022,09,07,09,30,17.70
2022,09,07,09,31,12.90
2022,09,07,09,32,14.50
2022,09,07,09,33,6.40
2022,09,07,09,34,9.60
2022,09,07,09,35,14.50
2022,09,07,09,36,9.60
2022,09,07,09,37,9.60
2022,09,07,09,38,8.10
2022,09,07,09,39,12.90
2022,09,07,09,40,12.90
2022,09,07,09,41,9.60
2022,09,07,09,42,6.40
2022,09,07,09,43,4.80
2022,09,07,09,44,12.90
2022,09,07,09,45,16.10
2022,09,07,09,46,9.60
2022,09,07,09,47,11.30
2022,09,07,09,48,8.10
2022,09,07,09,49,9.60
2022,09,07,09,50,12.90
2022,09,07,09,51,8.10
2022,09,07,09,52,9.60
2022,09,07,09,53,8.10
2022,09,07,09,54,9.60
2022,09,07,09,55,9.60
2022,09,07,09,56,12.90
2022,09,07,09,57,11.30
2022,09,07,09,58,6.40
2022,09,07,09,59,6.40
2022,09,07,10,00,8.10
2022,09,07,10,01,11.30
2022,09,07,10,02,8.10
2022,09,07,10,03,6.40
2022,09,07,10,04,8.10
2022,09,07,10,05,16.10
2022,09,07,10,06,14.50
2022,09,07,10,07,6.40
2022,09,07,10,08,4.80
2022,09,07,10,09,9.60
2022,09,07,10,10,9.60
2022,09,07,10,11,9.60
2022,09,07,10,12,6.40
2022,09,07,10,13,11.30
2022,09,07,10,14,11.30
2022,09,07,10,15,11.30
2022,09,07,10,16,8.10
2022,09,07,10,17,12.90
2022,09,07,10,18,11.30
2022,09,07,10,19,12.90
2022,09,07,10,20,9.60
2022,09,07,10,21,8.10
2022,09,07,10,22,11.30
2022,09,07,10,23,16.10
2022,09,07,10,24,12.90
2022,09,07,10,25,12.90
2022,09,07,10,26,12.90
2022,09,07,10,27,11.30
2022,09,07,10,28,9.60
2022,09,07,10,29,8.10
2022,09,07,10,30,8.10
2022,09,07,10,31,12.90
2022,09,07,10,32,12.90
2022,09,07,10,33,11.30
2022,09,07,10,34,14.50
2022,09,07,10,35,11.30
2022,09,07,10,36,12.90
2022,09,07,10,37,11.30
2022,09,07,10,38,16.10
2022,09,07,10,39,6.40
2022,09,07,10,40,8.10
2022,09,07,10,41,12.90
2022,09,07,10,42,4.80
2022,09,07,10,43,11.30
2022,09,07,10,44,8.10
2022,09,07,10,45,9.60
2022,09,07,10,46,12.90
2022,09,07,10,47,9.60
2022,09,07,10,48,11.30
2022,09,07,10,49,17.70
2022,09,07,10,50,16.10
2022,09,07,10,51,14.50
2022,09,07,10,52,12.90
2022,09,07,10,53,11.30
2022,09,07,10,54,12.90
2022,09,07,10,55,11.30
2022,09,07,10,56,6.40
2022,09,07,10,57,11.30
2022,09,07,10,58,9.60
2022,09,07,10,59,11.30
2022,09,07,11,00,12.90
2022,09,07,11,01,12.90
2022,09,07,11,02,14.50
2022,09,07,11,03,12.90
2022,09,07,11,04,11.30
2022,09,07,11,05,9.60
2022,09,07,11,06,16.10
2022,09,07,11,07,12.90
2022,09,07,11,08,14.50
2022,09,07,11,09,11.30
2022,09,07,11,10,19.30
2022,09,07,11,11,14.50
2022,09,07,11,12,9.60
2022,09,07,11,13,12.90
2022,09,07,11,14,17.70
2022,09,07,11,15,19.30
2022,09,07,11,16,16.10
2022,09,07,11,17,17.70
2022,09,07,11,18,19.30
2022,09,07,11,19,12.90
2022,09,07,11,20,12.90
2022,09,07,11,21,14.50
2022,09,07,11,22,9.60
2022,09,07,11,23,12.90
2022,09,07,11,24,14.50
2022,09,07,11,25,12.90
2022,09,07,11,26,9.60
2022,09,07,11,27,14.50
2022,09,07,11,28,9.60
2022,09,07,11,29,14.50
2022,09,07,11,30,9.60
2022,09,07,11,31,12.90
2022,09,07,11,32,16.10
2022,09,07,11,33,17.70
2022,09,07,11,34,17.70
2022,09,07,11,35,14.50
2022,09,07,11,36,12.90
2022,09,07,11,37,4.80
2022,09,07,11,38,4.80
2022,09,07,11,39,11.30
2022,09,07,11,40,14.50
2022,09,07,11,41,16.10
2022,09,07,11,42,12.90
2022,09,07,11,43,14.50
2022,09,07,11,44,12.90
2022,09,07,11,45,17.70
2022,09,07,11,46,9.60
2022,09,07,11,47,12.90
2022,09,07,11,48,14.50
2022,09,07,11,49,16.10
2022,09,07,11,50,16.10
2022,09,07,11,51,12.90
2022,09,07,11,52,17.70
2022,09,07,11,53,12.90
2022,09,07,11,54,16.10
2022,09,07,11,55,24.20
2022,09,07,11,56,19.30
2022,09,07,11,57,16.10
2022,09,07,11,58,17.70
2022,09,07,11,59,17.70
2022,09,07,12,00,16.10
2022,09,07,12,01,12.90
2022,09,07,12,02,14.50
2022,09,07,12,03,12.90
2022,09,07,12,04,17.70
2022,09,07,12,05,12.90
2022,09,07,12,06,14.50
2022,09,07,12,07,22.50
2022,09,07,12,08,22.50
2022,09,07,12,09,20.90
2022,09,07,12,10,16.10
2022,09,07,12,11,17.70
2022,09,07,12,12,17.70
2022,09,07,12,13,16.10
2022,09,07,12,14,20.90
2022,09,07,12,15,14.50
2022,09,07,12,16,11.30
2022,09,07,12,17,16.10
2022,09,07,12,18,14.50
2022,09,07,12,19,16.10
2022,09,07,12,20,17.70
2022,09,07,12,21,14.50
2022,09,07,12,22,19.30
2022,09,07,12,23,17.70
2022,09,07,12,24,12.90
2022,09,07,12,25,16.10
2022,09,07,12,26,16.10
2022,09,07,12,27,12.90
2022,09,07,12,28,16.10
2022,09,07,12,29,22.50
2022,09,07,12,30,19.30
2022,09,07,12,31,12.90
2022,09,07,12,32,14.50
2022,09,07,12,33,9.60
2022,09,07,12,34,20.90
2022,09,07,12,35,14.50
2022,09,07,12,36,17.70
2022,09,07,12,37,12.90
2022,09,07,12,38,12.90
2022,09,07,12,39,19.30
2022,09,07,12,40,16.10
2022,09,07,12,41,16.10
2022,09,07,12,42,19.30
2022,09,07,12,43,16.10
2022,09,07,12,44,17.70
2022,09,07,12,45,19.30
2022,09,07,12,46,12.90
2022,09,07,12,47,19.30
2022,09,07,12,48,11.30
2022,09,07,12,49,17.70
2022,09,07,12,50,11.30
2022,09,07,12,51,14.50
2022,09,07,12,52,14.50
2022,09,07,12,53,14.50
2022,09,07,12,54,12.90
2022,09,07,12,55,11.30
2022,09,07,12,56,16.10
2022,09,07,12,57,12.90
2022,09,07,12,58,14.50
2022,09,07,12,59,20.90
2022,09,07,13,00,14.50
2022,09,07,13,01,16.10
2022,09,07,13,02,19.30
2022,09,07,13,03,22.50
2022,09,07,13,04,22.50
2022,09,07,13,05,14.50
2022,09,07,13,06,22.50
2022,09,07,13,07,27.40
2022,09,07,13,08,25.70
2022,09,07,13,09,16.10
2022,09,07,13,10,14.50
2022,09,07,13,11,20.90
2022,09,07,13,12,17.70
2022,09,07,13,13,20.90
2022,09,07,13,14,25.70
2022,09,07,13,15,33.80
2022,09,07,13,16,17.70
2022,09,07,13,17,17.70
2022,09,07,13,18,14.50
2022,09,07,13,19,12.90
2022,09,07,13,20,25.70
2022,09,07,13,21,22.50
2022,09,07,13,22,16.10
2022,09,07,13,23,20.90
2022,09,07,13,24,6.40
2022,09,07,13,25,4.80
2022,09,07,13,26,16.10
2022,09,07,13,27,11.30
2022,09,07,13,28,17.70
2022,09,07,13,29,14.50
2022,09,07,13,30,22.50
2022,09,07,13,31,12.90
2022,09,07,13,32,16.10
2022,09,07,13,33,9.60
2022,09,07,13,34,12.90
2022,09,07,13,35,11.30
2022,09,07,13,36,19.30
2022,09,07,13,37,17.70
2022,09,07,13,38,11.30
2022,09,07,13,39,12.90
2022,09,07,13,40,14.50
2022,09,07,13,41,16.10
2022,09,07,13,42,14.50
2022,09,07,13,43,19.30
2022,09,07,13,44,20.90
2022,09,07,13,45,14.50
2022,09,07,13,46,9.60
2022,09,07,13,47,11.30
2022,09,07,13,48,17.70
2022,09,07,13,49,14.50
2022,09,07,13,50,9.60
2022,09,07,13,51,12.90
2022,09,07,13,52,9.60
2022,09,07,13,53,20.90
2022,09,07,13,54,12.90
2022,09,07,13,55,9.60
2022,09,07,13,56,19.30
2022,09,07,13,57,11.30
2022,09,07,13,58,14.50
2022,09,07,13,59,16.10
2022,09,07,14,00,14.50
2022,09,07,14,01,19.30
2022,09,07,14,02,14.50
2022,09,07,14,03,19.30
2022,09,07,14,04,12.90
2022,09,07,14,05,16.10
2022,09,07,14,06,14.50
2022,09,07,14,07,12.90
2022,09,07,14,08,12.90
2022,09,07,14,09,12.90
2022,09,07,14,10,9.60
2022,09,07,14,11,11.30
2022,09,07,14,12,12.90
2022,09,07,14,13,16.10
2022,09,07,14,14,9.60
2022,09,07,14,15,9.60
2022,09,07,14,16,11.30
2022,09,07,14,17,8.10
2022,09,07,14,18,6.40
2022,09,07,14,19,9.60
2022,09,07,14,20,6.40
2022,09,07,14,21,11.30
2022,09,07,14,22,9.60
2022,09,07,14,23,11.30
2022,09,07,14,24,11.30
2022,09,07,14,25,6.40
2022,09,07,14,26,9.60
2022,09,07,14,27,4.80
2022,09,07,14,28,12.90
2022,09,07,14,29,11.30
2022,09,07,14,30,9.60
2022,09,07,14,31,6.40
2022,09,07,14,32,6.40
2022,09,07,14,33,6.40
2022,09,07,14,34,9.60
2022,09,07,14,35,9.60
2022,09,07,14,36,6.40
2022,09,07,14,37,11.30
2022,09,07,14,38,11.30
2022,09,07,14,39,11.30
2022,09,07,14,40,14.50
2022,09,07,14,41,11.30
2022,09,07,14,42,12.90
2022,09,07,14,43,14.50
2022,09,07,14,44,11.30
2022,09,07,14,45,8.10
2022,09,07,14,46,11.30
2022,09,07,14,47,12.90
2022,09,07,14,48,16.10
2022,09,07,14,49,16.10
2022,09,07,14,50,12.90
2022,09,07,14,51,6.40
2022,09,07,14,52,8.10
2022,09,07,14,53,6.40
2022,09,07,14,54,12.90
2022,09,07,14,55,14.50
2022,09,07,14,56,6.40
2022,09,07,14,57,6.40
2022,09,07,14,58,9.60
2022,09,07,14,59,16.10
2022,09,07,15,00,11.30
2022,09,07,15,01,9.60
2022,09,07,15,02,6.40
2022,09,07,15,03,6.40
2022,09,07,15,04,6.40
2022,09,07,15,05,14.50
2022,09,07,15,06,16.10
2022,09,07,15,07,12.90
2022,09,07,15,08,4.80
2022,09,07,15,09,4.80
2022,09,07,15,10,6.40
2022,09,07,15,11,12.90
2022,09,07,15,12,11.30
2022,09,07,15,13,3.20
2022,09,07,15,14,6.40
2022,09,07,15,15,6.40
2022,09,07,15,16,4.80
2022,09,07,15,17,8.10
2022,09,07,15,18,6.40
2022,09,07,15,19,6.40
2022,09,07,15,20,12.90
2022,09,07,15,21,14.50
2022,09,07,15,22,12.90
2022,09,07,15,23,8.10
2022,09,07,15,24,11.30
2022,09,07,15,25,4.80
2022,09,07,15,26,6.40
2022,09,07,15,27,6.40
2022,09,07,15,28,6.40
2022,09,07,15,29,9.60
2022,09,07,15,30,11.30
2022,09,07,15,31,6.40
2022,09,07,15,32,4.80
2022,09,07,15,33,6.40
2022,09,07,15,34,12.90
2022,09,07,15,35,4.80
2022,09,07,15,36,6.40
2022,09,07,15,37,9.60
2022,09,07,15,38,11.30
2022,09,07,15,39,11.30
2022,09,07,15,40,11.30
2022,09,07,15,41,14.50
2022,09,07,15,42,11.30
2022,09,07,15,43,6.40
2022,09,07,15,44,12.90
2022,09,07,15,45,9.60
2022,09,07,15,46,9.60
2022,09,07,15,47,11.30
2022,09,07,15,48,6.40
2022,09,07,15,49,9.60
2022,09,07,15,50,17.70
2022,09,07,15,51,6.40
2022,09,07,15,52,11.30
2022,09,07,15,53,14.50
2022,09,07,15,54,11.30
2022,09,07,15,55,16.10
2022,09,07,15,56,11.30
2022,09,07,15,57,14.50
2022,09,07,15,58,11.30
2022,09,07,15,59,11.30
2022,09,07,16,00,6.40
2022,09,07,16,01,3.20
2022,09,07,16,02,9.60
2022,09,07,16,03,9.60
2022,09,07,16,04,8.10
2022,09,07,16,05,12.90
2022,09,07,16,06,12.90
2022,09,07,16,07,11.30
2022,09,07,16,08,11.30
2022,09,07,16,09,11.30
2022,09,07,16,10,6.40
2022,09,07,16,11,6.40
2022,09,07,16,12,9.60
2022,09,07,16,13,12.90
2022,09,07,16,14,9.60
2022,09,07,16,15,4.80
2022,09,07,16,16,12.90
2022,09,07,16,17,12.90
2022,09,07,16,18,14.50
2022,09,07,16,19,11.30
2022,09,07,16,20,12.90
2022,09,07,16,21,6.40
2022,09,07,16,22,14.50
2022,09,07,16,23,8.10
2022,09,07,16,24,4.80
2022,09,07,16,25,11.30
2022,09,07,16,26,16.10
2022,09,07,16,27,14.50
2022,09,07,16,28,11.30
2022,09,07,16,29,6.40
2022,09,07,16,30,17.70
2022,09,07,16,31,12.90
2022,09,07,16,32,12.90
2022,09,07,16,33,14.50
2022,09,07,16,34,12.90
2022,09,07,16,35,16.10
2022,09,07,16,36,9.60
2022,09,07,16,37,8.10
2022,09,07,16,38,12.90
2022,09,07,16,39,16.10
2022,09,07,16,40,11.30
2022,09,07,16,41,12.90
2022,09,07,16,42,14.50
2022,09,07,16,43,14.50
2022,09,07,16,44,6.40
2022,09,07,16,45,6.40
2022,09,07,16,46,14.50
2022,09,07,16,47,12.90
2022,09,07,16,48,6.40
2022,09,07,16,49,12.90
2022,09,07,16,50,12.90
2022,09,07,16,51,4.80
2022,09,07,16,52,6.40
2022,09,07,16,53,9.60
2022,09,07,16,54,6.40
2022,09,07,16,55,4.80
2022,09,07,16,56,8.10
2022,09,07,16,57,4.80
2022,09,07,16,58,6.40
2022,09,07,16,59,4.80
2022,09,07,17,00,4.80
2022,09,07,17,01,11.30
2022,09,07,17,02,9.60
2022,09,07,17,03,6.40
2022,09,07,17,04,11.30
2022,09,07,17,05,17.70
2022,09,07,17,06,12.90
2022,09,07,17,07,12.90
2022,09,07,17,08,12.90
2022,09,07,17,09,12.90
2022,09,07,17,10,14.50
2022,09,07,17,11,9.60
2022,09,07,17,12,11.30
2022,09,07,17,13,11.30
2022,09,07,17,14,12.90
2022,09,07,17,15,11.30
2022,09,07,17,16,8.10
2022,09,07,17,17,11.30
2022,09,07,17,18,17.70
2022,09,07,17,19,14.50
2022,09,07,17,20,14.50
2022,09,07,17,21,27.40
2022,09,07,17,22,19.30
2022,09,07,17,23,14.50
2022,09,07,17,24,12.90
2022,09,07,17,25,19.30
2022,09,07,17,26,14.50
2022,09,07,17,27,17.70
2022,09,07,17,28,12.90
2022,09,07,17,29,17.70
2022,09,07,17,30,14.50
2022,09,07,17,31,12.90
2022,09,07,17,32,12.90
2022,09,07,17,33,17.70
2022,09,07,17,34,16.10
2022,09,07,17,35,19.30
2022,09,07,17,36,19.30
2022,09,07,17,37,12.90
2022,09,07,17,38,16.10
2022,09,07,17,39,12.90
2022,09,07,17,40,19.30
2022,09,07,17,41,19.30
2022,09,07,17,42,9.60
2022,09,07,17,43,11.30
2022,09,07,17,44,12.90
2022,09,07,17,45,16.10
2022,09,07,17,46,16.10
2022,09,07,17,47,17.70
2022,09,07,17,48,12.90
2022,09,07,17,49,11.30
2022,09,07,17,50,11.30
2022,09,07,17,51,14.50
2022,09,07,17,52,19.30
2022,09,07,17,53,16.10
2022,09,07,17,54,16.10
2022,09,07,17,55,11.30
2022,09,07,17,56,17.70
2022,09,07,17,57,9.60
2022,09,07,17,58,17.70
2022,09,07,17,59,12.90
2022,09,07,18,00,17.70
2022,09,07,18,01,16.10
2022,09,07,18,02,14.50
2022,09,07,18,03,12.90
2022,09,07,18,04,14.50
2022,09,07,18,05,17.70
2022,09,07,18,06,19.30
2022,09,07,18,07,16.10
2022,09,07,18,08,14.50
2022,09,07,18,09,11.30
2022,09,07,18,10,14.50
2022,09,07,18,11,16.10
2022,09,07,18,12,14.50
2022,09,07,18,13,19.30
2022,09,07,18,14,16.10
2022,09,07,18,15,20.90
2022,09,07,18,16,17.70
2022,09,07,18,17,12.90
2022,09,07,18,18,24.20
2022,09,07,18,19,22.50
2022,09,07,18,20,14.50
2022,09,07,18,21,14.50
2022,09,07,18,22,17.70
2022,09,07,18,23,20.90
2022,09,07,18,24,14.50
2022,09,07,18,25,11.30
2022,09,07,18,26,11.30
2022,09,07,18,27,19.30
2022,09,07,18,28,14.50
2022,09,07,18,29,14.50
2022,09,07,18,30,20.90
2022,09,07,18,31,20.90
2022,09,07,18,32,20.90
2022,09,07,18,33,20.90
2022,09,07,18,34,16.10
2022,09,07,18,35,19.30
2022,09,07,18,36,19.30
2022,09,07,18,37,16.10
2022,09,07,18,38,19.30
2022,09,07,18,39,11.30
2022,09,07,18,40,14.50
2022,09,07,18,41,16.10
2022,09,07,18,42,17.70
2022,09,07,18,43,17.70
2022,09,07,18,44,19.30
2022,09,07,18,45,17.70
2022,09,07,18,46,22.50
2022,09,07,18,47,19.30
2022,09,07,18,48,14.50
2022,09,07,18,49,22.50
2022,09,07,18,50,22.50
2022,09,07,18,51,16.10
2022,09,07,18,52,12.90
2022,09,07,18,53,11.30
2022,09,07,18,54,17.70
2022,09,07,18,55,12.90
2022,09,07,18,56,17.70
2022,09,07,18,57,20.90
2022,09,07,18,58,12.90
2022,09,07,18,59,24.20
2022,09,07,19,00,17.70
2022,09,07,19,01,20.90
2022,09,07,19,02,14.50
2022,09,07,19,03,16.10
2022,09,07,19,04,11.30
2022,09,07,19,05,11.30
2022,09,07,19,06,12.90
2022,09,07,19,07,27.40
2022,09,07,19,08,16.10
2022,09,07,19,09,20.90
2022,09,07,19,10,12.90
2022,09,07,19,11,16.10
2022,09,07,19,12,14.50
2022,09,07,19,13,16.10
2022,09,07,19,14,19.30
2022,09,07,19,15,16.10
2022,09,07,19,16,11.30
2022,09,07,19,17,11.30
2022,09,07,19,18,12.90
2022,09,07,19,19,9.60
2022,09,07,19,20,17.70
2022,09,07,19,21,11.30
2022,09,07,19,22,12.90
2022,09,07,19,23,11.30
2022,09,07,19,24,9.60
2022,09,07,19,25,12.90
2022,09,07,19,26,12.90
2022,09,07,19,27,16.10
2022,09,07,19,28,9.60
2022,09,07,19,29,11.30
2022,09,07,19,30,19.30
2022,09,07,19,31,12.90
2022,09,07,19,32,19.30
2022,09,07,19,33,25.70
2022,09,07,19,34,14.50
2022,09,07,19,35,20.90
2022,09,07,19,36,14.50
2022,09,07,19,37,22.50
2022,09,07,19,38,8.10
2022,09,07,19,39,9.60
2022,09,07,19,40,12.90
2022,09,07,19,41,16.10
2022,09,07,19,42,11.30
2022,09,07,19,43,11.30
2022,09,07,19,44,19.30
2022,09,07,19,45,16.10
2022,09,07,19,46,19.30
2022,09,07,19,47,11.30
2022,09,07,19,48,16.10
2022,09,07,19,49,11.30
2022,09,07,19,50,12.90
2022,09,07,19,51,14.50
2022,09,07,19,52,24.20
2022,09,07,19,53,14.50
2022,09,07,19,54,9.60
2022,09,07,19,55,12.90
2022,09,07,19,56,16.10
2022,09,07,19,57,16.10
2022,09,07,19,58,19.30
2022,09,07,19,59,17.70
2022,09,07,20,00,19.30
2022,09,07,20,01,20.90
2022,09,07,20,02,24.20
2022,09,07,20,03,14.50
2022,09,07,20,04,9.60
2022,09,07,20,05,9.60
2022,09,07,20,06,24.20
2022,09,07,20,07,20.90
2022,09,07,20,08,16.10
2022,09,07,20,09,16.10
2022,09,07,20,10,20.90
2022,09,07,20,11,22.50
2022,09,07,20,12,12.90
2022,09,07,20,13,22.50
2022,09,07,20,14,11.30
2022,09,07,20,15,22.50
2022,09,07,20,16,17.70
2022,09,07,20,17,19.30
2022,09,07,20,18,16.10
2022,09,07,20,19,19.30
2022,09,07,20,20,19.30
2022,09,07,20,21,20.90
2022,09,07,20,22,22.50
2022,09,07,20,23,17.70
2022,09,07,20,24,20.90
2022,09,07,20,25,17.70
2022,09,07,20,26,17.70
2022,09,07,20,27,17.70
2022,09,07,20,28,16.10
2022,09,07,20,29,20.90
2022,09,07,20,30,19.30
2022,09,07,20,31,9.60
2022,09,07,20,32,12.90
2022,09,07,20,33,12.90
2022,09,07,20,34,14.50
2022,09,07,20,35,9.60
2022,09,07,20,36,12.90
2022,09,07,20,37,14.50
2022,09,07,20,38,19.30
2022,09,07,20,39,14.50
2022,09,07,20,40,17.70
2022,09,07,20,41,14.50
2022,09,07,20,42,16.10
2022,09,07,20,43,11.30
2022,09,07,20,44,16.10
2022,09,07,20,45,14.50
2022,09,07,20,46,17.70
2022,09,07,20,47,12.90
2022,09,07,20,48,19.30
2022,09,07,20,49,29.00
2022,09,07,20,50,19.30
2022,09,07,20,51,14.50
2022,09,07,20,52,17.70
2022,09,07,20,53,17.70
2022,09,07,20,54,8.10
2022,09,07,20,55,17.70
2022,09,07,20,56,11.30
2022,09,07,20,57,12.90
2022,09,07,20,58,14.50
2022,09,07,20,59,17.70
2022,09,07,21,00,30.60
2022,09,07,21,01,22.50
2022,09,07,21,02,16.10
2022,09,07,21,03,12.90
2022,09,07,21,04,9.60
2022,09,07,21,05,14.50
2022,09,07,21,06,8.10
2022,09,07,21,07,11.30
2022,09,07,21,08,20.90
2022,09,07,21,09,14.50
2022,09,07,21,10,24.20
2022,09,07,21,11,25.70
2022,09,07,21,12,16.10
2022,09,07,21,13,11.30
2022,09,07,21,14,12.90
2022,09,07,21,15,14.50
2022,09,07,21,16,17.70
2022,09,07,21,17,11.30
2022,09,07,21,18,20.90
2022,09,07,21,19,14.50
2022,09,07,21,20,9.60
2022,09,07,21,21,11.30
2022,09,07,21,22,14.50
2022,09,07,21,23,16.10
2022,09,07,21,24,20.90
2022,09,07,21,25,19.30
2022,09,07,21,26,16.10
2022,09,07,21,27,14.50
2022,09,07,21,28,17.70
2022,09,07,21,29,25.70
2022,09,07,21,30,11.30
2022,09,07,21,31,14.50
2022,09,07,21,32,17.70
2022,09,07,21,33,14.50
2022,09,07,21,34,24.20
2022,09,07,21,35,22.50
2022,09,07,21,36,27.40
2022,09,07,21,37,17.70
2022,09,07,21,38,17.70
2022,09,07,21,39,20.90
2022,09,07,21,40,19.30
2022,09,07,21,41,14.50
2022,09,07,21,42,17.70
2022,09,07,21,43,27.40
2022,09,07,21,44,16.10
2022,09,07,21,45,19.30
2022,09,07,21,46,17.70
2022,09,07,21,47,19.30
2022,09,07,21,48,12.90
2022,09,07,21,49,11.30
2022,09,07,21,50,19.30
2022,09,07,21,51,14.50
2022,09,07,21,52,14.50
2022,09,07,21,53,12.90
2022,09,07,21,54,12.90
2022,09,07,21,55,9.60
2022,09,07,21,56,12.90
2022,09,07,21,57,12.90
2022,09,07,21,58,14.50
2022,09,07,21,59,9.60
2022,09,07,22,00,4.80
2022,09,07,22,01,6.40
2022,09,07,22,02,12.90
2022,09,07,22,03,8.10
2022,09,07,22,04,6.40
2022,09,07,22,05,4.80
2022,09,07,22,06,14.50
2022,09,07,22,07,16.10
2022,09,07,22,08,14.50
2022,09,07,22,09,11.30
2022,09,07,22,10,14.50
2022,09,07,22,11,9.60
2022,09,07,22,12,6.40
2022,09,07,22,13,16.10
2022,09,07,22,14,12.90
2022,09,07,22,15,12.90
2022,09,07,22,16,11.30
2022,09,07,22,17,11.30
2022,09,07,22,18,14.50
2022,09,07,22,19,16.10
2022,09,07,22,20,14.50
2022,09,07,22,21,19.30
2022,09,07,22,22,14.50
2022,09,07,22,23,12.90
2022,09,07,22,24,16.10
2022,09,07,22,25,12.90
2022,09,07,22,26,11.30
2022,09,07,22,27,22.50
2022,09,07,22,28,12.90
2022,09,07,22,29,20.90
2022,09,07,22,30,14.50
2022,09,07,22,31,11.30
2022,09,07,22,32,14.50
2022,09,07,22,33,14.50
2022,09,07,22,34,12.90
2022,09,07,22,35,12.90
2022,09,07,22,36,11.30
2022,09,07,22,37,9.60
2022,09,07,22,38,17.70
2022,09,07,22,39,14.50
2022,09,07,22,40,17.70
2022,09,07,22,41,12.90
2022,09,07,22,42,19.30
2022,09,07,22,43,12.90
2022,09,07,22,44,24.20
2022,09,07,22,45,12.90
2022,09,07,22,46,17.70
2022,09,07,22,47,17.70
2022,09,07,22,48,6.40
2022,09,07,22,49,20.90
2022,09,07,22,50,14.50
2022,09,07,22,51,17.70
2022,09,07,22,52,12.90
2022,09,07,22,53,14.50
2022,09,07,22,54,14.50
2022,09,07,22,55,16.10
2022,09,07,22,56,16.10
2022,09,07,22,57,19.30
2022,09,07,22,58,6.40
2022,09,07,22,59,9.60
2022,09,07,23,00,14.50
2022,09,07,23,01,22.50
2022,09,07,23,02,19.30
2022,09,07,23,03,14.50
2022,09,07,23,04,22.50
2022,09,07,23,05,12.90
2022,09,07,23,06,11.30
2022,09,07,23,07,11.30
2022,09,07,23,08,12.90
2022,09,07,23,09,12.90
2022,09,07,23,10,14.50
2022,09,07,23,11,19.30
2022,09,07,23,12,12.90
2022,09,07,23,13,16.10
2022,09,07,23,14,12.90
2022,09,07,23,15,12.90
2022,09,07,23,16,17.70
2022,09,07,23,17,16.10
2022,09,07,23,18,20.90
2022,09,07,23,19,14.50
2022,09,07,23,20,8.10
2022,09,07,23,21,12.90
2022,09,07,23,22,14.50
2022,09,07,23,23,17.70
2022,09,07,23,24,22.50
2022,09,07,23,25,16.10
2022,09,07,23,26,11.30
2022,09,07,23,27,11.30
2022,09,07,23,28,14.50
2022,09,07,23,29,19.30
2022,09,07,23,30,22.50
2022,09,07,23,31,19.30
2022,09,07,23,32,11.30
2022,09,07,23,33,14.50
2022,09,07,23,34,11.30
2022,09,07,23,35,8.10
2022,09,07,23,36,8.10
2022,09,07,23,37,12.90
2022,09,07,23,38,11.30
2022,09,07,23,39,16.10
2022,09,07,23,40,12.90
2022,09,07,23,41,9.60
2022,09,07,23,42,14.50
2022,09,07,23,43,14.50
2022,09,07,23,44,16.10
2022,09,07,23,45,14.50
2022,09,07,23,46,17.70
2022,09,07,23,47,12.90
2022,09,07,23,48,8.10
2022,09,07,23,49,17.70
2022,09,07,23,50,12.90
2022,09,07,23,51,17.70
2022,09,07,23,52,16.10
2022,09,07,23,53,9.60
2022,09,07,23,54,6.40
2022,09,07,23,55,11.30
2022,09,07,23,56,9.60
2022,09,07,23,57,11.30
2022,09,07,23,58,11.30
2022,09,07,23,59,11.30
